Location: Newark
(45.4422°N, 16.2769°E)
Time: 22:45:36
(UTC+00:00)

Courier 1B - Pass Details

Date: 20 December 2019
Orbit: 962 x 1209 km, 28.3° (Epoch: 21 January)

Event Time Altitude Azimuth Distance (km) Brightness Sun altitude
Rises 18:35:29 0° 242° (WSW) 3,714 11.3 -34.3°
Reaches altitude 10° 18:39:01 10° 224° (SW) 2,803 10.3 -34.9°
Enters shadow 18:42:39 18° 192° (SSW) 2,326 9.5 -35.5°
Maximum altitude 18:43:23 18° 184° (S) 2,318 - -35.7°
Drops below altitude 10° 18:47:55 10° 144° (SE) 2,918 - -36.4°
Sets 18:51:42 0° 127° (SE) 3,926 - -37.1°
